Location: Eastview
(35.0756°N, 88.5453°W)
Time: 11:19:29
(UTC+00:00)

CORIOLIS - Pass Details

Date: 22 November 2019
Orbit: 819 x 838 km, 98.7° (Epoch: 06 December)

Event Time Altitude Azimuth Distance (km) Brightness Sun altitude
Rises 23:07:45 0° 152° (SSE) 3,357 7.2 -5.1°
Reaches altitude 10° 23:10:09 10° 147° (SSE) 2,430 6.5 -5.6°
Maximum altitude 23:15:21 51° 72° (ENE) 1,038 4.3 -6.6°
Drops below altitude 10° 23:20:35 10° 358° (N) 2,454 6.4 -7.6°
Sets 23:23:01 0° 354° (N) 3,394 7.2 -8.1°
